sat.trackr.live / text

‹ back to catalog

FLOCK 4G-12

NORAD 62625 · 2025-009S

PAYLOAD ACTIVE UNKNOWN

§ Identity

Operator
Country
US
Launch date
2025-01-14
Launch site
AFWTR
Launch vehicle
Mass (kg)
RCS (m²)

Purposes: earth_obs

External: N2YO · Heavens-Above · Gunter

§ Orbital elements

Epoch: 2026-05-25T03:34:16.051296Z

Period
94.20 min
Inclination
97.4020°
Eccentricity
0.0004965
Mean motion
15.28634230 rev/d
Perigee alt
476.5 km
Apogee alt
483.3 km
Semi-major
6,858.0 km
B*
3.9757e-4
RAAN
227.1104°
Arg perigee
52.7896°
Mean anomaly
307.3796°
Rev number
7,538

§ Raw data

FLOCK 4G-121 62625U 25009S   26145.14879689  .00011006  00000+0  39757-3 0  99982 62625  97.4020 227.1104 0004965  52.7896 307.3796 15.28634230 75385

JSON: /api/v1/satellites/62625 · /tle

For live sub-satellite position, see the globe view (requires WebGL).

§ Visibility from observer

Set your observer location to see the next 7 days of passes ≥ 10°. The values pass through the URL so the page stays shareable.

No JS? Fill the form by hand. The geolocation button needs JavaScript.